Preview of NWS' New Version of Forecast
This preview is not operational and should not be used for support decisions.

Regional Weather Roundup (RWR)

Issued by National Weather Service (NWS)

                            
000
ASUS45 KCYS 171910
RWRWY 

WYOMING REGIONAL WEATHER ROUNDUP
NATIONAL WEATHER SERVICE CHEYENNE WY
100 PM MDT WED APR 17 2019

NOTE:  "FAIR" INDICATES FEW OR NO CLOUDS BELOW 12,000 FEET
WITH NO SIGNIFICANT WEATHER AND/OR OBSTRUCTIONS TO VISIBILITY.

WYZ001-172000-
YELLOWSTONE NATIONAL PARK
  
CITY           SKY/WX    TMP DP  RH WIND       PRES   REMARKS
LK YELLOWSTONE NOT AVBL                                               
W YELLOWSTONE  NOT AVBL                                               

$$
WYZ002>013-054>058-071-098>099-172000-
NORTHERN WYOMING
  
CITY           SKY/WX    TMP DP  RH WIND       PRES   REMARKS
JACKSON        PTSUNNY   41  24  51 SW16      30.12S                  
CODY           CLOUDY    52  23  32 W13G18    29.98F                  
GREYBULL       CLOUDY    55  27  34 CALM      29.96F                  
WORLAND        FAIR      54  28  36 VRB6      29.98F                  
SHERIDAN       CLOUDY    54  28  36 N20G28    29.94F                  
BUFFALO        CLOUDY    53  30  41 NW10      29.96F                  
GILLETTE       PTSUNNY   51  29  42 NW23G31   29.93F                  
HULETT         LGT RAIN  48  32  53 NW9G21    29.93F                  
NEWCASTLE      FAIR      52  23  32 NW25G37   29.94S                  

$$
WYZ014>020-022>026-101>103-172000-
CENTRAL WYOMING
  
CITY           SKY/WX    TMP DP  RH WIND       PRES   REMARKS
BIG PINEY      FAIR      49  23  36 N15G23    30.11F                  
PINEDALE       FAIR      45  25  45 W15G30    30.11S                  
DUBOIS         FAIR      45  23  42 W23G30    30.02                   
LANDER         FAIR      55  27  34 E6        29.98F                  
RIVERTON       FAIR      54  22  28 MISG      29.99F                  
CASPER         PTSUNNY   53  32  44 W14G23    29.98F                  
DOUGLAS        PTSUNNY   52  33  48 NW14G21   29.97F                  

$$
WYZ021-027>030-104>119-172000-
SOUTHERN WYOMING
  
CITY           SKY/WX    TMP DP  RH WIND       PRES   REMARKS
EVANSTON       CLOUDY    40  23  50 W16       30.21S WCI  31          
KEMMERER       MOCLDY    43  27  52 W17G23    30.18F                  
ROCK SPRINGS   PTSUNNY   46  28  49 W23G31    30.12F                  
DIXON          MOCLDY    50  24  36 NW13      30.12F                  
RAWLINS        PTSUNNY   48  26  42 W22G28    30.06F                  
SARATOGA       CLOUDY    48  25  40 W21       30.08S                  
LARAMIE        FAIR      50  24  36 NW18G33   30.00F                  
CHEYENNE       FAIR      53  31  42 NW17G28   29.97F                  
TORRINGTON     FAIR      57  29  34 NW22G32   29.92F                  
PINE BLUFFS    FAIR      55  30  38 NW22G30   29.97S                  

$$
  

000
ASUS45 KCYS 171910
RWRWY 

WYOMING REGIONAL WEATHER ROUNDUP
NATIONAL WEATHER SERVICE CHEYENNE WY
100 PM MDT WED APR 17 2019

NOTE:  "FAIR" INDICATES FEW OR NO CLOUDS BELOW 12,000 FEET
WITH NO SIGNIFICANT WEATHER AND/OR OBSTRUCTIONS TO VISIBILITY.

WYZ001-172000-
...YELLOWSTONE NATIONAL PARK...
  
CITY           SKY/WX    TMP DP  RH WIND       PRES   REMARKS
LK YELLOWSTONE NOT AVBL                                               
W YELLOWSTONE  NOT AVBL                                               

$$
WYZ002>013-054>058-071-098>099-172000-
...NORTHERN WYOMING...
  
CITY           SKY/WX    TMP DP  RH WIND       PRES   REMARKS
JACKSON        PTSUNNY   41  24  51 SW16      30.12S                  
CODY           CLOUDY    52  23  32 W13G18    29.98F                  
GREYBULL       CLOUDY    55  27  34 CALM      29.96F                  
WORLAND        FAIR      54  28  36 VRB6      29.98F                  
SHERIDAN       CLOUDY    54  28  36 N20G28    29.94F                  
BUFFALO        CLOUDY    53  30  41 NW10      29.96F                  
GILLETTE       PTSUNNY   51  29  42 NW23G31   29.93F                  
HULETT         LGT RAIN  48  32  53 NW9G21    29.93F                  
NEWCASTLE      FAIR      52  23  32 NW25G37   29.94S                  

$$
WYZ014>020-022>026-101>103-172000-
...CENTRAL WYOMING...
  
CITY           SKY/WX    TMP DP  RH WIND       PRES   REMARKS
BIG PINEY      FAIR      49  23  36 N15G23    30.11F                  
PINEDALE       FAIR      45  25  45 W15G30    30.11S                  
DUBOIS         FAIR      45  23  42 W23G30    30.02F                  
LANDER         FAIR      55  27  34 E6        29.98F                  
RIVERTON       FAIR      54  22  28 MISG      29.99F                  
CASPER         PTSUNNY   53  32  44 W14G23    29.98F                  
DOUGLAS        PTSUNNY   52  33  48 NW14G21   29.97F                  

$$
WYZ021-027>030-104>119-172000-
...SOUTHERN WYOMING...
  
CITY           SKY/WX    TMP DP  RH WIND       PRES   REMARKS
EVANSTON       CLOUDY    40  23  50 W16       30.21S WCI  31          
KEMMERER       PTSUNNY   43  27  52 W17G23    30.18F                  
FORT BRIDGER   FAIR      48  27  43 NW18G25   30.22S                  
ROCK SPRINGS   PTSUNNY   46  28  49 W23G31    30.12F                  
DIXON          PTSUNNY   50  24  36 NW13      30.12F                  
RAWLINS        PTSUNNY   48  26  42 W22G28    30.06F                  
SARATOGA       CLOUDY    48  25  40 W21       30.08S                  
LARAMIE        FAIR      50  24  36 NW18G33   30.00F                  
CHEYENNE       FAIR      53  31  42 NW17G28   29.97F                  
TORRINGTON     FAIR      57  29  34 NW22G32   29.92F                  
PINE BLUFFS    FAIR      55  30  38 NW22G30   29.97S                  

$$